| time (UTC) | temp C | wind direction | speed KPH | gust KPH | rain 1hr cm | rain 24hr cm | rain mn cm | humidity % | barometer mb |
| 20260507115037 | 10 | 286 | 0.0 | 11.3 | 0.00 | 0.53 | 0.03 | 76 | 1004.2 |
| 20260507114536 | 10 | 292 | 1.6 | 12.9 | 0.00 | 0.53 | 0.03 | 78 | 1004.2 |
| 20260507114036 | 10 | 298 | 4.8 | 12.9 | 0.00 | 0.53 | 0.03 | 79 | 1004.2 |
| 20260507113536 | 10 | 295 | 4.8 | 9.7 | 0.00 | 0.53 | 0.03 | 79 | 1003.8 |
| 20260507113036 | 10 | 303 | 0.0 | 14.5 | 0.00 | 0.53 | 0.03 | 80 | 1003.8 |
| 20260507112536 | 10 | 256 | 1.6 | 14.5 | 0.00 | 0.53 | 0.03 | 80 | 1003.8 |
| 20260507112034 | 9 | 306 | 3.2 | 9.7 | 0.00 | 0.53 | 0.03 | 81 | 1004.1 |
| 20260507111535 | 9 | 328 | 0.0 | 8.0 | 0.00 | 0.53 | 0.03 | 81 | 1004.1 |
| 20260507111034 | 9 | 329 | 0.0 | 8.0 | 0.00 | 0.53 | 0.03 | 81 | 1004.1 |
| 20260507110534 | 9 | 269 | 0.0 | 3.2 | 0.00 | 0.53 | 0.03 | 81 | 1003.9 |
| 20260507110034 | 9 | 267 | 0.0 | 11.3 | 0.00 | 0.53 | 0.03 | 81 | 1003.9 |
| 20260507105533 | 9 | 313 | 3.2 | 11.3 | 0.03 | 0.53 | 0.03 | 82 | 1003.9 |
| 20260507105033 | 9 | 330 | 0.0 | 0.0 | 0.03 | 0.53 | 0.03 | 82 | 1003.6 |
| 20260507104536 | 9 | 330 | 0.0 | 8.0 | 0.03 | 0.53 | 0.03 | 82 | 1003.6 |
| 20260507104032 | 9 | 330 | 1.6 | 8.0 | 0.03 | 0.53 | 0.03 | 82 | 1003.6 |
| 20260507103531 | 9 | 302 | 0.0 | 12.9 | 0.03 | 0.53 | 0.03 | 82 | 1003.5 |
| 20260507103032 | 9 | 306 | 4.8 | 12.9 | 0.03 | 0.53 | 0.03 | 82 | 1003.5 |
| 20260507102531 | 9 | 329 | 3.2 | 12.9 | 0.03 | 0.53 | 0.03 | 82 | 1003.5 |
| 20260507102033 | 9 | 280 | 3.2 | 12.9 | 0.03 | 0.53 | 0.03 | 82 | 1003.3 |
| 20260507101529 | 9 | 331 | 1.6 | 11.3 | 0.03 | 0.53 | 0.03 | 82 | 1003.3 |
| 20260507101028 | 9 | 334 | 0.0 | 6.4 | 0.03 | 0.53 | 0.03 | 83 | 1003.3 |
| 20260507100528 | 9 | 292 | 1.6 | 6.4 | 0.03 | 0.53 | 0.03 | 83 | 1003.8 |
| 20260507100036 | 9 | 283 | 1.6 | 8.0 | 0.03 | 0.53 | 0.03 | 82 | 1003.8 |
| 20260507095530 | 9 | 286 | 3.2 | 11.3 | 0.00 | 0.51 | 0.00 | 82 | 1003.8 |
| 20260507095027 | 9 | 297 | 3.2 | 9.7 | 0.00 | 0.51 | 0.00 | 83 | 1003.5 |
| 20260507094525 | 9 | 270 | 1.6 | 9.7 | 0.00 | 0.51 | 0.00 | 83 | 1003.5 |
| 20260507094026 | 9 | 320 | 1.6 | 9.7 | 0.00 | 0.51 | 0.00 | 83 | 1003.5 |
| 20260507093525 | 9 | 238 | 0.0 | 11.3 | 0.00 | 0.51 | 0.00 | 83 | 1003.7 |
| 20260507093024 | 9 | 250 | 0.0 | 11.3 | 0.00 | 0.51 | 0.00 | 83 | 1003.7 |
| 20260507092524 | 9 | 272 | 3.2 | 9.7 | 0.00 | 0.51 | 0.00 | 82 | 1003.7 |
| 20260507092027 | 10 | 250 | 0.0 | 9.7 | 0.00 | 0.51 | 0.00 | 83 | 1003.6 |
| 20260507091528 | 10 | 228 | 0.0 | 14.5 | 0.00 | 0.51 | 0.00 | 83 | 1003.6 |
| 20260507091023 | 10 | 332 | 3.2 | 12.9 | 0.00 | 0.51 | 0.00 | 83 | 1003.6 |
| 20260507090526 | 10 | 282 | 0.0 | 9.7 | 0.00 | 0.51 | 0.00 | 82 | 1003.2 |
| 20260507090022 | 10 | 228 | 0.0 | 6.4 | 0.00 | 0.51 | 0.00 | 82 | 1003.2 |
| 20260507085522 | 9 | 229 | 0.0 | 9.7 | 0.00 | 0.51 | 0.00 | 83 | 1003.2 |
| 20260507085022 | 9 | 320 | 0.0 | 9.7 | 0.00 | 0.51 | 0.00 | 83 | 1003.2 |
| 20260507084521 | 10 | 281 | 3.2 | 9.7 | 0.00 | 0.51 | 0.00 | 84 | 1003.2 |
| 20260507084023 | 10 | 226 | 3.2 | 9.7 | 0.00 | 0.51 | 0.00 | 84 | 1003.2 |
| 20260507083519 | 10 | 323 | 1.6 | 12.9 | 0.00 | 0.51 | 0.00 | 84 | 1003.1 |
| 20260507083019 | 10 | 278 | 1.6 | 12.9 | 0.00 | 0.51 | 0.00 | 84 | 1003.1 |
| 20260507082517 | 10 | 296 | 0.0 | 9.7 | 0.00 | 0.51 | 0.00 | 84 | 1003.1 |
| 20260507082016 | 10 | 279 | 0.0 | 9.7 | 0.00 | 0.51 | 0.00 | 84 | 1003.3 |
| 20260507081516 | 10 | 258 | 1.6 | 8.0 | 0.00 | 0.51 | 0.00 | 84 | 1003.3 |
| 20260507081016 | 10 | 252 | 1.6 | 11.3 | 0.00 | 0.51 | 0.00 | 83 | 1003.3 |
| 20260507080516 | 10 | 278 | 3.2 | 14.5 | 0.00 | 0.51 | 0.00 | 82 | 1003.0 |
| 20260507080014 | 10 | 283 | 3.2 | 17.7 | 0.00 | 0.51 | 0.00 | 81 | 1003.0 |
| 20260507075514 | 10 | 273 | 0.0 | 17.7 | 0.00 | 0.51 | 0.00 | 81 | 1003.0 |
| 20260507075013 | 10 | 304 | 8.0 | 14.5 | 0.00 | 0.51 | 0.00 | 81 | 1002.9 |
| 20260507074513 | 10 | 321 | 4.8 | 19.3 | 0.00 | 0.51 | 0.00 | 81 | 1002.9 |
| 20260507074014 | 10 | 275 | 6.4 | 19.3 | 0.00 | 0.51 | 0.00 | 81 | 1002.9 |
| 20260507073511 | 10 | 288 | 3.2 | 12.9 | 0.00 | 0.51 | 0.00 | 81 | 1002.7 |
| 20260507073011 | 10 | 282 | 3.2 | 12.9 | 0.00 | 0.51 | 0.00 | 81 | 1002.7 |
| 20260507072510 | 11 | 295 | 4.8 | 12.9 | 0.00 | 0.51 | 0.00 | 81 | 1002.7 |
| 20260507072009 | 11 | 287 | 0.0 | 12.9 | 0.00 | 0.51 | 0.00 | 82 | 1002.7 |
| 20260507071511 | 11 | 253 | 4.8 | 12.9 | 0.00 | 0.51 | 0.00 | 83 | 1002.7 |
| 20260507071011 | 11 | 313 | 6.4 | 12.9 | 0.00 | 0.51 | 0.00 | 84 | 1002.7 |
| 20260507070507 | 11 | 235 | 3.2 | 12.9 | 0.00 | 0.51 | 0.00 | 85 | 1002.6 |
| 20260507070010 | 11 | 264 | 3.2 | 12.9 | 0.00 | 0.51 | 0.00 | 85 | 1002.6 |
| 20260507065505 | 11 | 219 | 0.0 | 6.4 | 0.00 | 0.51 | 0.00 | 86 | 1002.6 |
| 20260507065006 | 11 | 263 | 0.0 | 12.9 | 0.00 | 0.51 | 0.00 | 87 | 1002.4 |
| 20260507064504 | 11 | 292 | 3.2 | 12.9 | 0.00 | 0.51 | 0.00 | 87 | 1002.4 |
| 20260507064004 | 11 | 252 | 1.6 | 6.4 | 0.00 | 0.51 | 0.00 | 87 | 1002.4 |
| 20260507063504 | 11 | 269 | 0.0 | 0.0 | 0.00 | 0.51 | 0.00 | 87 | 1002.3 |
| 20260507063004 | 11 | 269 | 0.0 | 6.4 | 0.00 | 0.51 | 0.00 | 87 | 1002.3 |
| 20260507062503 | 11 | 269 | 1.6 | 6.4 | 0.00 | 0.51 | 0.00 | 87 | 1002.3 |
| 20260507062003 | 11 | 260 | 1.6 | 6.4 | 0.00 | 0.51 | 0.00 | 87 | 1002.2 |
| 20260507061503 | 11 | 259 | 0.0 | 8.0 | 0.00 | 0.51 | 0.00 | 87 | 1002.2 |
| 20260507061005 | 11 | 288 | 0.0 | 8.0 | 0.00 | 0.51 | 0.00 | 86 | 1002.2 |
| 20260507060501 | 11 | 315 | 0.0 | 9.7 | 0.00 | 0.51 | 0.00 | 86 | 1002.6 |
| 20260507060001 | 11 | 259 | 0.0 | 16.1 | 0.00 | 0.51 | 0.00 | 86 | 1002.6 |
| 20260507055502 | 11 | 265 | 0.0 | 8.0 | 0.00 | 0.51 | 0.00 | 87 | 1002.6 |
| 20260507055001 | 11 | 263 | 1.6 | 8.0 | 0.00 | 0.51 | 0.00 | 87 | 1002.4 |
| 20260507054608 | 11 | 242 | 0.0 | 8.0 | 0.00 | 0.51 | 0.00 | 87 | 1002.4 |
| 20260507054059 | 11 | 242 | 0.0 | 9.7 | 0.00 | 0.51 | 0.00 | 87 | 1002.4 |
| 20260507053600 | 11 | 270 | 0.0 | 9.7 | 0.00 | 0.51 | 0.00 | 87 | 1002.7 |
| 20260507053110 | 11 | 276 | 0.0 | 8.0 | 0.00 | 0.51 | 0.00 | 87 | 1002.7 |
| 20260507052558 | 12 | 265 | 1.6 | 8.0 | 0.00 | 0.51 | 0.00 | 87 | 1002.7 |
| 20260507052058 | 12 | 292 | 0.0 | 11.3 | 0.00 | 0.51 | 0.00 | 87 | 1002.8 |
| 20260507051607 | 12 | 267 | 1.6 | 11.3 | 0.00 | 0.51 | 0.00 | 87 | 1002.8 |
| 20260507051056 | 12 | 265 | 0.0 | 17.7 | 0.00 | 0.51 | 0.00 | 87 | 1002.8 |
| 20260507050556 | 12 | 279 | 0.0 | 11.3 | 0.00 | 0.51 | 0.00 | 87 | 1002.6 |
| 20260507050056 | 12 | 296 | 1.6 | 12.9 | 0.00 | 0.51 | 0.00 | 88 | 1002.6 |
| 20260507045555 | 12 | 288 | 3.2 | 12.9 | 0.00 | 0.51 | 0.00 | 87 | 1002.6 |
| 20260507045055 | 12 | 272 | 0.0 | 12.9 | 0.00 | 0.51 | 0.00 | 88 | 1002.3 |
| 20260507044557 | 12 | 254 | 0.0 | 14.5 | 0.00 | 0.51 | 0.00 | 87 | 1002.3 |
| 20260507044056 | 12 | 285 | 6.4 | 16.1 | 0.00 | 0.51 | 0.00 | 87 | 1002.3 |
| 20260507043551 | 12 | 298 | 6.4 | 16.1 | 0.00 | 0.51 | 0.00 | 87 | 1002.6 |
| 20260507043052 | 13 | 311 | 4.8 | 19.3 | 0.00 | 0.51 | 0.00 | 88 | 1002.6 |
| 20260507042547 | 13 | 281 | 4.8 | 14.5 | 0.00 | 0.51 | 0.00 | 89 | 1002.6 |
| 20260507042046 | 13 | 318 | 4.8 | 14.5 | 0.00 | 0.51 | 0.51 | 89 | 1002.5 |
| 20260507041545 | 13 | 280 | 6.4 | 14.5 | 0.00 | 0.51 | 0.51 | 89 | 1002.5 |
| 20260507041044 | 14 | 275 | 4.8 | 14.5 | 0.00 | 0.51 | 0.51 | 89 | 1002.5 |
| 20260507040542 | 15 | 307 | 4.8 | 14.5 | 0.00 | 0.51 | 0.51 | 91 | 1002.0 |
| 20260507040042 | 15 | 217 | 0.0 | 8.0 | 0.00 | 0.51 | 0.51 | 91 | 1002.0 |
| 20260507035541 | 15 | 249 | 0.0 | 8.0 | 0.00 | 0.51 | 0.51 | 91 | 1002.0 |
| 20260507035041 | 15 | 244 | 1.6 | 8.0 | 0.00 | 0.51 | 0.51 | 91 | 1001.8 |
| 20260507034540 | 15 | 221 | 0.0 | 16.1 | 0.00 | 0.51 | 0.51 | 91 | 1001.8 |
| 20260507034039 | 15 | 302 | 4.8 | 16.1 | 0.00 | 0.51 | 0.51 | 91 | 1001.8 |
| 20260507033539 | 15 | 269 | 4.8 | 19.3 | 0.00 | 0.51 | 0.51 | 92 | 1001.6 |
| 20260507033038 | 15 | 200 | 0.0 | 12.9 | 0.00 | 0.51 | 0.51 | 92 | 1001.6 |
| 20260507032538 | 15 | 279 | 1.6 | 9.7 | 0.00 | 0.51 | 0.51 | 92 | 1001.6 |
| 20260507032039 | 15 | 231 | 0.0 | 16.1 | 0.00 | 0.51 | 0.51 | 92 | 1001.3 |
| 20260507031538 | 15 | 236 | 6.4 | 16.1 | 0.00 | 0.51 | 0.51 | 91 | 1001.3 |
| 20260507031037 | 15 | 219 | 4.8 | 16.1 | 0.00 | 0.51 | 0.51 | 91 | 1001.3 |
| 20260507030537 | 15 | 218 | 6.4 | 16.1 | 0.00 | 0.51 | 0.51 | 91 | 1001.3 |
| 20260507030038 | 15 | 216 | 4.8 | 16.1 | 0.00 | 0.51 | 0.51 | 91 | 1001.3 |
| 20260507025537 | 15 | 222 | 4.8 | 12.9 | 0.00 | 0.51 | 0.51 | 91 | 1001.3 |
| 20260507025039 | 15 | 225 | 3.2 | 16.1 | 0.00 | 0.51 | 0.51 | 91 | 1001.5 |
| 20260507024535 | 15 | 223 | 3.2 | 16.1 | 0.00 | 0.51 | 0.51 | 91 | 1001.5 |
| 20260507024034 | 15 | 233 | 0.0 | 16.1 | 0.00 | 0.51 | 0.51 | 91 | 1001.5 |
| 20260507023534 | 15 | 184 | 4.8 | 14.5 | 0.00 | 0.51 | 0.51 | 91 | 1001.4 |
| 20260507023036 | 15 | 217 | 1.6 | 11.3 | 0.00 | 0.51 | 0.51 | 91 | 1001.4 |
| 20260507022534 | 15 | 215 | 1.6 | 12.9 | 0.00 | 0.51 | 0.51 | 91 | 1001.4 |
| 20260507022034 | 15 | 187 | 6.4 | 14.5 | 0.00 | 0.51 | 0.51 | 91 | 1001.4 |
| 20260507021539 | 15 | 206 | 4.8 | 14.5 | 0.00 | 0.51 | 0.51 | 91 | 1001.4 |
| 20260507021033 | 15 | 190 | 1.6 | 19.3 | 0.00 | 0.51 | 0.51 | 91 | 1001.4 |
| 20260507020533 | 15 | 190 | 6.4 | 16.1 | 0.00 | 0.51 | 0.51 | 91 | 1001.6 |
| 20260507020035 | 15 | 178 | 1.6 | 24.1 | 0.00 | 0.51 | 0.51 | 91 | 1001.6 |
| 20260507015535 | 15 | 204 | 3.2 | 24.1 | 0.00 | 0.51 | 0.51 | 91 | 1001.6 |
| 20260507015034 | 15 | 257 | 4.8 | 12.9 | 0.03 | 0.51 | 0.51 | 91 | 1001.6 |
| 20260507014531 | 15 | 207 | 3.2 | 14.5 | 0.03 | 0.51 | 0.51 | 91 | 1001.6 |
| 20260507014031 | 15 | 192 | 3.2 | 17.7 | 0.03 | 0.51 | 0.51 | 91 | 1001.6 |
| 20260507013530 | 15 | 204 | 6.4 | 17.7 | 0.03 | 0.51 | 0.51 | 91 | 1001.7 |
| 20260507013030 | 15 | 226 | 1.6 | 16.1 | 0.03 | 0.51 | 0.51 | 91 | 1001.7 |
| 20260507012534 | 15 | 215 | 6.4 | 19.3 | 0.03 | 0.51 | 0.51 | 91 | 1001.7 |
| 20260507012030 | 15 | 200 | 6.4 | 16.1 | 0.03 | 0.51 | 0.51 | 91 | 1001.7 |
| 20260507011534 | 15 | 185 | 6.4 | 16.1 | 0.03 | 0.51 | 0.51 | 91 | 1001.7 |
| 20260507011028 | 15 | 187 | 1.6 | 12.9 | 0.03 | 0.51 | 0.51 | 91 | 1001.7 |
| 20260507010530 | 15 | 174 | 3.2 | 12.9 | 0.03 | 0.51 | 0.51 | 91 | 1001.7 |
| 20260507010038 | 15 | 184 | 4.8 | 22.5 | 0.03 | 0.51 | 0.51 | 91 | 1001.7 |
| 20260507005528 | 15 | 209 | 9.7 | 22.5 | 0.03 | 0.51 | 0.51 | 91 | 1001.7 |
| 20260507005026 | 15 | 178 | 6.4 | 17.7 | 0.00 | 0.48 | 0.48 | 91 | 1001.7 |
| 20260507004529 | 15 | 198 | 4.8 | 14.5 | 0.00 | 0.48 | 0.48 | 91 | 1001.7 |
| 20260507004026 | 15 | 183 | 4.8 | 16.1 | 0.03 | 0.48 | 0.48 | 91 | 1001.7 |
| 20260507003525 | 15 | 189 | 6.4 | 16.1 | 0.03 | 0.48 | 0.48 | 91 | 1001.7 |
| 20260507003025 | 15 | 213 | 4.8 | 17.7 | 0.08 | 0.48 | 0.48 | 91 | 1001.7 |
| 20260507002524 | 15 | 201 | 6.4 | 22.5 | 0.13 | 0.48 | 0.48 | 91 | 1001.7 |
| 20260507002028 | 15 | 207 | 6.4 | 14.5 | 0.13 | 0.48 | 0.48 | 91 | 1001.5 |
| 20260507001523 | 15 | 189 | 4.8 | 14.5 | 0.13 | 0.48 | 0.48 | 91 | 1001.5 |
| 20260507001022 | 15 | 183 | 4.8 | 17.7 | 0.15 | 0.48 | 0.48 | 91 | 1001.5 |
| 20260507000522 | 15 | 186 | 4.8 | 12.9 | 0.15 | 0.48 | 0.48 | 91 | 1001.6 |
| 20260507000023 | 15 | 195 | 1.6 | 14.5 | 0.18 | 0.48 | 0.48 | 91 | 1001.6 |
| 20260506235522 | 15 | 169 | 4.8 | 14.5 | 0.18 | 0.48 | 0.48 | 91 | 1001.6 |
| 20260506235021 | 15 | 165 | 6.4 | 12.9 | 0.18 | 0.48 | 0.48 | 91 | 1001.5 |
| 20260506234521 | 15 | 186 | 6.4 | 12.9 | 0.18 | 0.48 | 0.48 | 91 | 1001.5 |
| 20260506234021 | 15 | 184 | 3.2 | 16.1 | 0.15 | 0.46 | 0.46 | 91 | 1001.5 |
| 20260506233521 | 15 | 202 | 8.0 | 19.3 | 0.15 | 0.43 | 0.43 | 91 | 1001.5 |
| 20260506233022 | 15 | 194 | 6.4 | 22.5 | 0.10 | 0.38 | 0.38 | 91 | 1001.5 |
| 20260506232518 | 15 | 178 | 6.4 | 22.5 | 0.08 | 0.36 | 0.36 | 90 | 1001.5 |
| 20260506232018 | 15 | 205 | 8.0 | 22.5 | 0.08 | 0.36 | 0.36 | 90 | 1001.7 |
| 20260506231517 | 16 | 209 | 4.8 | 22.5 | 0.08 | 0.36 | 0.36 | 90 | 1001.7 |
| 20260506231020 | 16 | 237 | 4.8 | 16.1 | 0.05 | 0.33 | 0.33 | 90 | 1001.7 |
| 20260506230516 | 16 | 187 | 6.4 | 12.9 | 0.05 | 0.33 | 0.33 | 90 | 1001.8 |
| 20260506230024 | 16 | 209 | 6.4 | 14.5 | 0.03 | 0.30 | 0.30 | 90 | 1001.8 |
| 20260506225516 | 16 | 182 | 6.4 | 14.5 | 0.03 | 0.30 | 0.30 | 90 | 1001.8 |
| 20260506225016 | 16 | 228 | 4.8 | 25.7 | 0.03 | 0.30 | 0.30 | 90 | 1001.8 |
| 20260506224515 | 16 | 187 | 6.4 | 25.7 | 0.03 | 0.30 | 0.30 | 89 | 1001.8 |
| 20260506224013 | 16 | 198 | 4.8 | 19.3 | 0.03 | 0.30 | 0.30 | 89 | 1001.8 |
| 20260506223513 | 16 | 213 | 11.3 | 27.4 | 0.00 | 0.28 | 0.28 | 88 | 1001.8 |
| 20260506223013 | 16 | 181 | 12.9 | 27.4 | 0.03 | 0.28 | 0.28 | 89 | 1001.8 |
| 20260506222512 | 16 | 200 | 8.0 | 16.1 | 0.03 | 0.28 | 0.28 | 89 | 1001.8 |
| 20260506222014 | 16 | 195 | 8.0 | 20.9 | 0.03 | 0.28 | 0.28 | 89 | 1002.0 |
| 20260506221511 | 16 | 214 | 6.4 | 20.9 | 0.05 | 0.28 | 0.28 | 89 | 1002.0 |
| 20260506221010 | 16 | 174 | 6.4 | 22.5 | 0.05 | 0.28 | 0.28 | 89 | 1002.0 |
| 20260506220512 | 16 | 184 | 11.3 | 22.5 | 0.05 | 0.28 | 0.28 | 89 | 1002.2 |
| 20260506220015 | 16 | 177 | 8.0 | 17.7 | 0.08 | 0.28 | 0.28 | 89 | 1002.2 |
| 20260506215512 | 16 | 165 | 4.8 | 17.7 | 0.08 | 0.28 | 0.28 | 89 | 1002.2 |
| 20260506215008 | 16 | 169 | 6.4 | 25.7 | 0.08 | 0.28 | 0.28 | 89 | 1002.5 |
| 20260506214507 | 16 | 178 | 4.8 | 25.7 | 0.10 | 0.28 | 0.28 | 89 | 1002.5 |
| 20260506214006 | 16 | 187 | 8.0 | 16.1 | 0.13 | 0.28 | 0.28 | 89 | 1002.5 |
| 20260506213505 | 16 | 179 | 4.8 | 16.1 | 0.10 | 0.25 | 0.25 | 89 | 1002.5 |
| 20260506213006 | 16 | 188 | 6.4 | 22.5 | 0.10 | 0.25 | 0.25 | 89 | 1002.5 |
| 20260506212505 | 16 | 200 | 4.8 | 22.5 | 0.13 | 0.25 | 0.25 | 89 | 1002.5 |
| 20260506212003 | 16 | 200 | 9.7 | 20.9 | 0.18 | 0.25 | 0.25 | 88 | 1002.7 |
| 20260506211503 | 16 | 184 | 8.0 | 16.1 | 0.18 | 0.23 | 0.23 | 88 | 1002.7 |
| 20260506211003 | 16 | 204 | 6.4 | 17.7 | 0.18 | 0.23 | 0.23 | 88 | 1002.7 |
| 20260506210503 | 16 | 200 | 8.0 | 17.7 | 0.18 | 0.23 | 0.23 | 88 | 1002.8 |
| 20260506210002 | 16 | 185 | 6.4 | 24.1 | 0.15 | 0.20 | 0.20 | 88 | 1002.8 |
| 20260506205501 | 16 | 180 | 11.3 | 24.1 | 0.15 | 0.20 | 0.20 | 88 | 1002.8 |
| 20260506205001 | 16 | 172 | 3.2 | 14.5 | 0.18 | 0.20 | 0.20 | 87 | 1002.7 |
| 20260506204501 | 16 | 171 | 4.8 | 11.3 | 0.15 | 0.18 | 0.18 | 87 | 1002.7 |
| 20260506204100 | 17 | 188 | 0.0 | 11.3 | 0.13 | 0.15 | 0.15 | 86 | 1002.7 |
| 20260506203600 | 17 | 193 | 0.0 | 8.0 | 0.15 | 0.15 | 0.15 | 86 | 1002.7 |
| 20260506203100 | 17 | 196 | 0.0 | 9.7 | 0.15 | 0.15 | 0.15 | 85 | 1002.7 |
| 20260506202559 | 17 | 178 | 0.0 | 9.7 | 0.13 | 0.13 | 0.13 | 84 | 1002.7 |
| 20260506202059 | 17 | 183 | 1.6 | 16.1 | 0.08 | 0.08 | 0.08 | 84 | 1002.6 |
| 20260506201559 | 17 | 186 | 1.6 | 16.1 | 0.05 | 0.05 | 0.05 | 83 | 1002.6 |
| 20260506201058 | 17 | 176 | 6.4 | 14.5 | 0.05 | 0.05 | 0.05 | 82 | 1002.6 |
| 20260506200558 | 17 | 175 | 3.2 | 12.9 | 0.05 | 0.05 | 0.05 | 82 | 1002.7 |
| 20260506200057 | 17 | 155 | 3.2 | 11.3 | 0.05 | 0.05 | 0.05 | 82 | 1002.7 |
| 20260506195557 | 17 | 167 | 3.2 | 11.3 | 0.05 | 0.05 | 0.05 | 81 | 1002.7 |
| 20260506195057 | 18 | 178 | 0.0 | 8.0 | 0.03 | 0.03 | 0.03 | 80 | 1002.8 |
| 20260506194556 | 18 | 153 | 0.0 | 6.4 | 0.03 | 0.03 | 0.03 | 79 | 1002.8 |
| 20260506194055 | 18 | 163 | 0.0 | 6.4 | 0.03 | 0.03 | 0.03 | 77 | 1002.8 |
| 20260506193556 | 19 | 155 | 0.0 | 17.7 | 0.00 | 0.00 | 0.00 | 76 | 1002.7 |
| 20260506193055 | 20 | 134 | 4.8 | 24.1 | 0.00 | 0.00 | 0.00 | 73 | 1002.7 |
| 20260506192556 | 20 | 173 | 8.0 | 24.1 | 0.00 | 0.00 | 0.00 | 72 | 1002.7 |
| 20260506192055 | 20 | 213 | 6.4 | 24.1 | 0.00 | 0.00 | 0.00 | 70 | 1002.7 |
| 20260506191602 | 20 | 241 | 6.4 | 24.1 | 0.00 | 0.00 | 0.00 | 70 | 1002.7 |
| 20260506191055 | 20 | 223 | 6.4 | 20.9 | 0.00 | 0.00 | 0.00 | 72 | 1002.7 |
| 20260506190555 | 20 | 170 | 6.4 | 20.9 | 0.00 | 0.00 | 0.00 | 71 | 1002.7 |
| 20260506190056 | 20 | 182 | 0.0 | 16.1 | 0.00 | 0.00 | 0.00 | 71 | 1002.7 |
| 20260506185554 | 20 | 166 | 4.8 | 16.1 | 0.00 | 0.00 | 0.00 | 70 | 1002.7 |
| 20260506185054 | 20 | 154 | 3.2 | 16.1 | 0.00 | 0.00 | 0.00 | 70 | 1002.7 |
| 20260506184610 | 20 | 178 | 3.2 | 16.1 | 0.00 | 0.00 | 0.00 | 69 | 1002.7 |
| 20260506184053 | 20 | 183 | 1.6 | 17.7 | 0.00 | 0.00 | 0.00 | 68 | 1002.7 |
| 20260506183558 | 21 | 170 | 3.2 | 22.5 | 0.00 | 0.00 | 0.00 | 67 | 1002.6 |
| 20260506183053 | 21 | 159 | 4.8 | 22.5 | 0.00 | 0.00 | 0.00 | 65 | 1002.6 |
| 20260506182553 | 21 | 193 | 6.4 | 25.7 | 0.00 | 0.00 | 0.00 | 64 | 1002.6 |
| 20260506182052 | 21 | 168 | 4.8 | 25.7 | 0.00 | 0.00 | 0.00 | 64 | 1002.9 |
| 20260506181553 | 21 | 173 | 11.3 | 29.0 | 0.00 | 0.00 | 0.00 | 63 | 1002.9 |
| 20260506181053 | 22 | 165 | 9.7 | 29.0 | 0.00 | 0.00 | 0.00 | 64 | 1002.9 |
| 20260506180552 | 21 | 176 | 6.4 | 19.3 | 0.00 | 0.00 | 0.00 | 64 | 1003.1 |
| 20260506180052 | 22 | 170 | 4.8 | 25.7 | 0.00 | 0.00 | 0.00 | 63 | 1003.1 |
| 20260506175552 | 22 | 196 | 6.4 | 25.7 | 0.00 | 0.00 | 0.00 | 63 | 1003.1 |
| 20260506175051 | 22 | 149 | 4.8 | 30.6 | 0.00 | 0.00 | 0.00 | 63 | 1003.0 |
| 20260506174551 | 22 | 150 | 6.4 | 30.6 | 0.00 | 0.00 | 0.00 | 63 | 1003.0 |
| 20260506174051 | 22 | 173 | 6.4 | 25.7 | 0.00 | 0.00 | 0.00 | 62 | 1003.0 |
| 20260506173551 | 23 | 141 | 6.4 | 25.7 | 0.00 | 0.00 | 0.00 | 61 | 1003.2 |
| 20260506173050 | 23 | 150 | 6.4 | 27.4 | 0.00 | 0.00 | 0.00 | 61 | 1003.2 |
| 20260506172549 | 22 | 186 | 9.7 | 27.4 | 0.00 | 0.00 | 0.00 | 62 | 1003.2 |
| 20260506172048 | 22 | 207 | 8.0 | 20.9 | 0.00 | 0.00 | 0.00 | 63 | 1003.3 |
| 20260506171557 | 22 | 177 | 3.2 | 19.3 | 0.00 | 0.00 | 0.00 | 64 | 1003.3 |
| 20260506171047 | 22 | 181 | 8.0 | 22.5 | 0.00 | 0.00 | 0.00 | 63 | 1003.3 |
| 20260506170547 | 22 | 151 | 6.4 | 22.5 | 0.00 | 0.00 | 0.00 | 63 | 1003.4 |
| 20260506170051 | 22 | 138 | 4.8 | 12.9 | 0.00 | 0.00 | 0.00 | 63 | 1003.4 |
| 20260506165546 | 22 | 172 | 1.6 | 17.7 | 0.00 | 0.00 | 0.00 | 64 | 1003.4 |
| 20260506165046 | 22 | 192 | 4.8 | 14.5 | 0.00 | 0.00 | 0.00 | 63 | 1003.6 |
| 20260506164548 | 22 | 168 | 1.6 | 14.5 | 0.00 | 0.00 | 0.00 | 63 | 1003.6 |
| 20260506164045 | 22 | 200 | 4.8 | 11.3 | 0.00 | 0.00 | 0.00 | 63 | 1003.6 |
| 20260506163544 | 22 | 182 | 0.0 | 22.5 | 0.00 | 0.00 | 0.00 | 63 | 1003.8 |
| 20260506163045 | 22 | 172 | 6.4 | 25.7 | 0.00 | 0.00 | 0.00 | 62 | 1003.8 |
| 20260506162544 | 22 | 192 | 8.0 | 25.7 | 0.00 | 0.00 | 0.00 | 63 | 1003.8 |
| 20260506162043 | 22 | 173 | 1.6 | 20.9 | 0.00 | 0.00 | 0.00 | 63 | 1004.2 |
| 20260506161544 | 22 | 196 | 6.4 | 24.1 | 0.00 | 0.00 | 0.00 | 63 | 1004.2 |
| 20260506161043 | 22 | 180 | 3.2 | 32.2 | 0.00 | 0.00 | 0.00 | 63 | 1004.2 |
| 20260506160542 | 22 | 176 | 9.7 | 32.2 | 0.00 | 0.00 | 0.00 | 62 | 1004.5 |
| 20260506160057 | 22 | 219 | 8.0 | 22.5 | 0.00 | 0.00 | 0.00 | 63 | 1004.5 |
| 20260506155541 | 22 | 191 | 3.2 | 17.7 | 0.00 | 0.00 | 0.00 | 63 | 1004.5 |
| 20260506155041 | 22 | 185 | 1.6 | 20.9 | 0.00 | 0.00 | 0.00 | 64 | 1004.8 |
| 20260506154541 | 22 | 205 | 6.4 | 27.4 | 0.00 | 0.00 | 0.00 | 63 | 1004.8 |
| 20260506154041 | 22 | 188 | 8.0 | 27.4 | 0.00 | 0.00 | 0.00 | 63 | 1004.8 |
| 20260506153544 | 22 | 177 | 6.4 | 27.4 | 0.00 | 0.00 | 0.00 | 64 | 1004.9 |
| 20260506153041 | 22 | 178 | 4.8 | 29.0 | 0.00 | 0.00 | 0.00 | 63 | 1004.9 |
| 20260506152544 | 22 | 184 | 9.7 | 29.0 | 0.00 | 0.00 | 0.00 | 63 | 1004.9 |
| 20260506152040 | 22 | 171 | 8.0 | 25.7 | 0.00 | 0.00 | 0.00 | 64 | 1005.2 |
| 20260506151542 | 22 | 189 | 8.0 | 24.1 | 0.00 | 0.00 | 0.00 | 63 | 1005.2 |
| 20260506151038 | 21 | 245 | 4.8 | 24.1 | 0.00 | 0.00 | 0.00 | 66 | 1005.2 |
| 20260506150537 | 21 | 169 | 4.8 | 19.3 | 0.00 | 0.00 | 0.00 | 67 | 1005.0 |
| 20260506150038 | 21 | 171 | 6.4 | 25.7 | 0.00 | 0.00 | 0.00 | 66 | 1005.0 |
| 20260506145536 | 21 | 212 | 8.0 | 25.7 | 0.00 | 0.00 | 0.00 | 66 | 1005.0 |
| 20260506145036 | 21 | 181 | 6.4 | 17.7 | 0.00 | 0.00 | 0.00 | 66 | 1004.9 |
| 20260506144546 | 21 | 261 | 3.2 | 29.0 | 0.00 | 0.00 | 0.00 | 67 | 1004.9 |
| 20260506144035 | 21 | 186 | 6.4 | 30.6 | 0.00 | 0.00 | 0.00 | 67 | 1004.9 |
| 20260506143534 | 21 | 180 | 6.4 | 30.6 | 0.00 | 0.00 | 0.00 | 67 | 1004.7 |
| 20260506143035 | 21 | 192 | 9.7 | 33.8 | 0.00 | 0.00 | 0.00 | 67 | 1004.7 |
| 20260506142532 | 21 | 196 | 6.4 | 22.5 | 0.00 | 0.00 | 0.00 | 68 | 1004.7 |
| 20260506142032 | 21 | 180 | 8.0 | 22.5 | 0.00 | 0.00 | 0.00 | 68 | 1004.9 |
| 20260506141530 | 20 | 193 | 4.8 | 22.5 | 0.00 | 0.00 | 0.00 | 68 | 1004.9 |
| 20260506141030 | 20 | 194 | 9.7 | 27.4 | 0.00 | 0.00 | 0.00 | 69 | 1004.9 |
| 20260506140529 | 20 | 180 | 8.0 | 19.3 | 0.00 | 0.00 | 0.00 | 69 | 1005.0 |
| 20260506140033 | 20 | 225 | 4.8 | 24.1 | 0.00 | 0.00 | 0.00 | 69 | 1005.0 |
| 20260506135530 | 20 | 166 | 8.0 | 24.1 | 0.00 | 0.00 | 0.00 | 69 | 1005.0 |
| 20260506135027 | 20 | 172 | 8.0 | 20.9 | 0.00 | 0.00 | 0.00 | 69 | 1005.4 |
| 20260506134525 | 20 | 182 | 4.8 | 17.7 | 0.00 | 0.00 | 0.00 | 70 | 1005.4 |
| 20260506134027 | 20 | 178 | 6.4 | 19.3 | 0.00 | 0.00 | 0.00 | 70 | 1005.4 |
| 20260506133524 | 19 | 175 | 4.8 | 27.4 | 0.00 | 0.00 | 0.00 | 70 | 1005.4 |
| 20260506133030 | 19 | 232 | 9.7 | 27.4 | 0.00 | 0.00 | 0.00 | 69 | 1005.4 |
| 20260506132527 | 19 | 200 | 8.0 | 19.3 | 0.00 | 0.00 | 0.00 | 70 | 1005.4 |
| 20260506132023 | 19 | 229 | 9.7 | 24.1 | 0.00 | 0.00 | 0.00 | 71 | 1005.4 |
| 20260506131523 | 19 | 206 | 6.4 | 24.1 | 0.00 | 0.00 | 0.00 | 71 | 1005.4 |
| 20260506131027 | 19 | 200 | 4.8 | 24.1 | 0.00 | 0.00 | 0.00 | 71 | 1005.4 |
| 20260506130523 | 19 | 162 | 8.0 | 25.7 | 0.00 | 0.00 | 0.00 | 71 | 1005.4 |
| 20260506130023 | 19 | 194 | 9.7 | 27.4 | 0.00 | 0.00 | 0.00 | 71 | 1005.4 |
| 20260506125521 | 19 | 232 | 9.7 | 27.4 | 0.00 | 0.00 | 0.00 | 72 | 1005.4 |
| 20260506125022 | 18 | 198 | 9.7 | 22.5 | 0.00 | 0.00 | 0.00 | 72 | 1005.6 |
| 20260506124522 | 18 | 211 | 6.4 | 17.7 | 0.00 | 0.00 | 0.00 | 73 | 1005.6 |
| 20260506124018 | 18 | 196 | 8.0 | 24.1 | 0.00 | 0.00 | 0.00 | 73 | 1005.6 |
| 20260506123518 | 18 | 200 | 4.8 | 29.0 | 0.00 | 0.00 | 0.00 | 73 | 1005.6 |
| 20260506123018 | 18 | 209 | 11.3 | 29.0 | 0.00 | 0.00 | 0.00 | 73 | 1005.6 |
| 20260506122518 | 18 | 181 | 6.4 | 17.7 | 0.00 | 0.00 | 0.00 | 74 | 1005.6 |
| 20260506122021 | 18 | 208 | 8.0 | 20.9 | 0.00 | 0.00 | 0.00 | 73 | 1005.6 |
| 20260506121517 | 17 | 184 | 11.3 | 22.5 | 0.00 | 0.00 | 0.00 | 74 | 1005.6 |
| 20260506121017 | 17 | 186 | 6.4 | 14.5 | 0.00 | 0.00 | 0.00 | 74 | 1005.6 |
| 20260506120520 | 17 | 185 | 4.8 | 19.3 | 0.00 | 0.00 | 0.00 | 74 | 1005.8 |
| 20260506120019 | 17 | 202 | 9.7 | 19.3 | 0.00 | 0.00 | 0.00 | 74 | 1005.8 |
| 20260506115516 | 17 | 199 | 6.4 | 20.9 | 0.00 | 0.00 | 0.00 | 74 | 1005.8 |